Location: ??
(34.7707°N, 135.6540°E)
Time: 20:59:17
(UTC+00:00)

USA 234 - Pass Details

Date: 09 April 2020
Orbit: 1102 x 1106 km, 123.0° (Epoch: 14 May)

Event Time Altitude Azimuth Distance (km) Brightness Sun altitude
Rises 12:41:10 0° 37° (NE) 3,922 6.3 -36.4°
Reaches altitude 10° 12:43:48 10° 30° (NNE) 2,963 5.6 -36.8°
Maximum altitude 12:49:47 40° 324° (NW) 1,569 4.3 -37.6°
Drops below altitude 10° 12:55:46 10° 257° (WSW) 2,957 5.7 -38.4°
Sets 12:58:24 0° 250° (WSW) 3,913 6.4 -38.7°
